Location: Arroyo de Valdeoliva
(40.1604°N, 4.9878°W)
Time: 19:57:52
(UTC+00:00)

Resurs 1-3 - Pass Details

Date: 11 December 2025
Orbit: 613 x 615 km, 97.7° (Epoch: 12 January)

Event Time Altitude Azimuth Distance (km) Brightness Sun altitude
Rises 18:04:49 0° 140° (SE) 2,872 6.8 -13.1°
Reaches altitude 10° 18:07:13 10° 128° (SE) 1,971 5.8 -13.5°
Maximum altitude 18:10:52 28° 70° (ENE) 1,159 4.4 -14.2°
Drops below altitude 10° 18:14:33 10° 11° (N) 1,984 5.9 -14.8°
Sets 18:16:58 0° 360° (N) 2,893 6.8 -15.3°
